This demonstration page uses our WeatherBlox Daily Observations layout. Learn more.

Left ArrowRight Arrow

41.86663, -103.66717

Hourly Observations for April 15, 2016

Temp ( °F °C ) Dew Point ( °F °C ) Humidity (%) Winds ( mph kmh ) Pressure ( in mb ) Visibility ( mi km ) Precip ( " mm )
12:04 am 00:04 Cloudy with Nearby Thunderstorms 54 12 45 7 72 72 WNW 15 24 29.56 1001 10 16 N/A
12:17 am 00:17 Cloudy 53 11.7 44 6.7 72 72 WNW 9 15 29.59 1002 10 16 0.02 0.51
12:53 am 00:53 Partly Cloudy 52 11.1 42 5.6 69 69 NW 10 17 29.54 1000 10 16 0.02 0.51
1:53 am 01:53 Clear 46 7.8 41 5 83 83 W 7 11 29.57 1002 10 16 N/A
2:53 am 02:53 Clear 44 6.7 38 3.3 79 79 N 5 7 29.59 1002 10 16 N/A
3:53 am 03:53 Clear 41 5 37 2.8 86 86 NNW 5 7 29.62 1003 10 16 N/A
4:53 am 04:53 Clear 41 5 35 1.7 79 79 NW 7 11 29.62 1003 10 16 N/A
5:53 am 05:53 Clear 40 4.4 36 2.2 86 86 NNE 7 11 29.63 1003 10 16 N/A
6:53 am 06:53 Sunny 42 5.6 36 2.2 79 79 WNW 10 17 29.65 1004 10 16 N/A
7:53 am 07:53 Sunny 46 7.8 37 2.8 71 71 undefined N/A 29.64 1004 10 16 N/A
8:53 am 08:53 Sunny 52 11.1 33 0.6 49 49 NNW 10 17 29.65 1004 10 16 N/A
9:53 am 09:53 Sunny 55 12.8 32 undefined 42 42 N 13 20 29.68 1005 10 16 N/A
10:53 am 10:53 Mostly Cloudy 57 13.9 33 0.6 41 41 N 15 24 29.68 1005 10 16 N/A
11:53 am 11:53 Sunny 58 14.4 33 0.6 39 39 NNW 16 26 29.68 1005 10 16 N/A
12:53 pm 12:53 Mostly Sunny 59 15 35 1.7 41 41 N 13 20 29.68 1005 10 16 N/A
1:53 pm 13:53 Cloudy 59 15 37 2.8 44 44 NNE 14 22 29.69 1006 10 16 N/A
2:53 pm 14:53 Cloudy with Light Rain 53 11.7 45 7.2 74 74 NNE 13 20 29.72 1007 8 13 0.02 0.51
3:25 pm 15:25 Cloudy with Heavy Rain 50 10 47 8.3 89 89 ENE 5 7 29.74 1007 2 3 0.09 2.29
3:32 pm 15:32 Cloudy with Heavy Rain 50 10 48 9 94 94 N N/A 29.74 1007 1 2 N/A
3:40 pm 15:40 Cloudy with Heavy Rain 50 10 50 10 100 100 W 8 13 29.74 1007 1 1 N/A
3:53 pm 15:53 Cloudy with Heavy Rain 48 8.9 48 8.9 100 100 WNW 8 13 29.79 1009 1 2 0.51 12.95
4:01 pm 16:01 Cloudy with Rain 49 9.4 49 9.4 100 100 WNW 16 26 29.77 1008 2 3 0.04 1.02
4:06 pm 16:06 Cloudy with Rain 48 8.9 47 8.3 96 96 NW 17 28 29.77 1008 3 5 0.06 1.52
4:15 pm 16:15 Cloudy with Rain 48 8.9 47 8.3 96 96 NW 16 26 29.77 1008 3 4 0.09 2.29
4:30 pm 16:30 Cloudy with Rain 46 8 46 8 100 100 NW 18 30 29.83 1010 3 5 N/A
4:39 pm 16:39 Cloudy with Light Rain 47 8.3 47 8.3 100 100 NW 21 33 29.80 1009 4 6 0.15 3.81
4:51 pm 16:51 Cloudy with Light Rain 46 8 45 7 93 93 NNW 23 37 29.83 1010 4 6 0.17 4.32
4:53 pm 16:53 Cloudy with Light Rain 46 7.8 44 6.7 93 93 NNW 21 33 29.82 1010 5 8 0.17 4.32
5:53 pm 17:53 Cloudy with Light Rain 44 6.7 40 4.4 85 85 N 22 35 29.88 1012 10 16 0.02 0.51
6:53 pm 18:53 Cloudy 45 7.2 40 4.4 83 83 NNW 20 31 29.86 1011 10 16 N/A
7:45 pm 19:45 Cloudy 43 6.1 38 3.3 82 82 N 17 28 29.94 1014 10 16 N/A
7:53 pm 19:53 Cloudy 43 6.1 38 3.3 82 82 N 13 20 29.90 1013 10 16 N/A
8:06 pm 20:06 Cloudy 43 6 37 3 81 81 N 17 28 29.94 1014 10 16 N/A
8:43 pm 20:43 Cloudy 43 6.1 38 3.3 82 82 N 16 26 29.94 1014 10 16 N/A
8:53 pm 20:53 Cloudy 43 6.1 38 3.3 82 82 N 22 35 29.92 1013 10 16 N/A
9:20 pm 21:20 Cloudy 43 6 37 3 81 81 N 15 24 29.94 1014 10 16 N/A
9:53 pm 21:53 Cloudy 43 6.1 37 2.8 80 80 N 17 28 29.88 1012 10 16 N/A
10:53 pm 22:53 Cloudy with Light Rain 43 6.1 38 3.3 82 82 NNW 15 24 29.90 1012 10 16 N/A
11:53 pm 23:53 Cloudy with Rain 43 6.1 39 3.9 86 86 N 12 19 29.91 1013 6 10 0.06 1.52

Powered by AerisWeather